This is the latest recevied weather packets stored in our database for station/object KA1JKB. If no packets are shown the sender has not sent any weather packets the latest 10 day(s).
| Time | Temp. | Humidity | Pressure | Rain* | Wind** | Luminosity | Snow |
|---|---|---|---|---|---|---|---|
| 1777647553 | 7.78° C | 80% | 1010.8 hPa | 0 mm | - | 757 W/m² | - |
| 1777647250 | 7.22° C | 81% | 1010.6 hPa | 0 mm | - | 333 W/m² | - |
| 1777646948 | 7.22° C | 81% | 1010.8 hPa | 0 mm | - | 307 W/m² | - |
| 1777646643 | 7.22° C | 83% | 1010.6 hPa | 0 mm | - | 308 W/m² | - |
| 1777646339 | 7.22° C | 82% | 1010.6 hPa | 0 mm | - | 293 W/m² | - |
| 1777646036 | 7.22° C | 83% | 1010.8 hPa | 0 mm | - | 232 W/m² | - |
| 1777645732 | 7.22° C | 84% | 1010.5 hPa | 0 mm | - | 265 W/m² | - |
| 1777645429 | 6.67° C | 84% | 1010.6 hPa | 0 mm | - | 377 W/m² | - |
| 1777645125 | 6.67° C | 87% | 1010.9 hPa | 0 mm | - | 525 W/m² | - |
| 1777644822 | 6.11° C | 88% | 1010.8 hPa | 0 mm | - | 273 W/m² | - |
| 1777644520 | 6.67° C | 90% | 1010.7 hPa | 0 mm | - | 252 W/m² | - |
| 1777644215 | 6.11° C | 91% | 1010.7 hPa | 0 mm | - | 247 W/m² | - |
| 1777643912 | 6.11° C | 91% | 1010.8 hPa | 0 mm | - | 213 W/m² | - |
| 1777643610 | 6.11° C | 91% | 1010.7 hPa | 0 mm | - | 223 W/m² | - |
| 1777643307 | 6.11° C | 92% | 1010.8 hPa | 0 mm | - | 171 W/m² | - |
| 1777643003 | 5.56° C | 91% | 1010.9 hPa | 0 mm | - | 182 W/m² | - |
| 1777642699 | 6.11° C | 92% | 1010.8 hPa | 0 mm | - | 161 W/m² | - |
| 1777642397 | 5.56° C | 93% | 1010.7 hPa | 0 mm | - | 166 W/m² | - |
| 1777642093 | 5.56° C | 93% | 1010.8 hPa | 0 mm | - | 156 W/m² | - |
| 1777641789 | 5.56° C | 94% | 1010.8 hPa | 0 mm | - | 131 W/m² | - |
| 1777641490 | 5.56° C | 94% | 1010.6 hPa | 0 mm | - | 127 W/m² | - |
| 1777641185 | 5° C | 94% | 1010.8 hPa | 0 mm | - | 138 W/m² | - |
| 1777640881 | 5° C | 95% | 1010.7 hPa | 0 mm | - | 130 W/m² | - |
| 1777640579 | 5° C | 96% | 1010.8 hPa | 0 mm | - | 118 W/m² | - |
| 1777640275 | 5° C | 97% | 1010.6 hPa | 0 mm | - | 128 W/m² | - |
* Rain latest hour (hover to see other rain measurements)
** Current wind speed in m/s (hover to see current wind gust speed)